This demonstration page uses our WeatherBlox Daily Observations layout. Learn more.

Left ArrowRight Arrow

39.01783, -85.05884

Hourly Observations for August 27, 2017

Temp ( °F °C ) Dew Point ( °F °C ) Humidity (%) Winds ( mph kmh ) Pressure ( in mb ) Visibility ( mi km ) Precip ( " mm )
12:52 am 00:52 Mostly Clear 65 18.3 52 11.1 63 63 ENE 8 13 30.16 1021 10 16 0.00 0.00
1:52 am 01:52 Mostly Cloudy 62 16.7 53 11.7 73 73 E 6 9 30.16 1021 10 16 0.00 0.00
2:52 am 02:52 Cloudy 62 16.7 53 11.7 73 73 E 5 7 30.17 1022 10 16 0.00 0.00
3:52 am 03:52 Cloudy 62 16.7 54 12.2 75 75 NE 5 7 30.16 1021 10 16 0.00 0.00
4:52 am 04:52 Mostly Cloudy 59 15 55 12.8 87 87 NNE 5 7 30.15 1021 10 16 0.00 0.00
5:52 am 05:52 Mostly Cloudy 60 15.6 54 12.2 80 80 NE 6 9 30.14 1021 10 16 0.00 0.00
6:52 am 06:52 Mostly Cloudy 59 15 53 11.7 81 81 ENE 8 13 30.14 1021 10 16 0.00 0.00
7:52 am 07:52 Partly Cloudy 59 15 54 12.2 83 83 NNE 7 11 30.14 1021 10 16 0.00 0.00
8:52 am 08:52 Mostly Sunny 62 16.7 54 12.2 75 75 ENE 7 11 30.15 1021 10 16 0.00 0.00
9:52 am 09:52 Mostly Sunny 66 18.9 54 12.2 65 65 ENE 7 11 30.13 1020 10 16 0.00 0.00
10:52 am 10:52 Mostly Sunny 71 21.7 56 13.3 59 59 NE 3 6 30.14 1021 10 16 0.00 0.00
11:52 am 11:52 Mostly Sunny 74 23.3 56 13.3 54 54 VRB 3 6 30.13 1020 10 16 0.00 0.00
12:52 pm 12:52 Mostly Sunny 77 25 58 14.4 52 52 ENE 6 9 30.11 1020 10 16 0.00 0.00
1:52 pm 13:52 Mostly Sunny 79 26.1 55 12.8 44 44 NE 7 11 30.09 1019 10 16 0.00 0.00
2:52 pm 14:52 Mostly Sunny 80 26.7 55 12.8 42 42 ESE 3 6 30.07 1018 10 16 0.00 0.00
3:52 pm 15:52 Mostly Sunny 81 27.2 52 11.1 37 37 ESE 5 7 30.05 1018 10 16 0.00 0.00
4:52 pm 16:52 Mostly Sunny 83 28.3 55 12.8 38 38 E 8 13 30.04 1017 10 16 0.00 0.00
5:52 pm 17:52 Mostly Sunny 82 27.8 57 13.9 42 42 NE 8 13 30.03 1017 10 16 0.00 0.00
6:52 pm 18:52 Mostly Sunny 80 26.7 58 14.4 47 47 E 8 13 30.02 1017 10 16 0.00 0.00
7:52 pm 19:52 Mostly Sunny 76 24.4 58 14.4 54 54 E 7 11 30.03 1017 10 16 0.00 0.00
8:52 pm 20:52 Mostly Clear 72 22.2 59 15 64 64 E 3 6 30.03 1017 10 16 0.00 0.00
9:52 pm 21:52 Partly Cloudy 72 22.2 59 15 64 64 E 9 15 30.03 1017 10 16 0.00 0.00
10:52 pm 22:52 Partly Cloudy 71 21.7 59 15 66 66 E 7 11 30.04 1017 10 16 0.00 0.00
11:52 pm 23:52 Partly Cloudy 71 21.7 59 15 66 66 E 9 15 30.02 1017 10 16 0.00 0.00

Powered by AerisWeather